Hourly Weather Abakaliki

Today, 27 October, Tuesday

Time Temperature Precipitation Wind Pressure Humidity
00:00 +26°C° 0.2 mm 3 mps 751 mmHg 92%
01:00 +25°C° 0 mm 3 mps 751 mmHg 94%
02:00 +25°C° 0.3 mm 2 mps 751 mmHg 94%
03:00 +25°C° 0.3 mm 2 mps 750 mmHg 95%
04:00 +25°C° 0.3 mm 1 mps 750 mmHg 95%
05:00 +25°C° 0.2 mm 1 mps 750 mmHg 95%
06:00 +25°C° 0.2 mm 1 mps 751 mmHg 94%
07:00 +25°C° 0.2 mm 1 mps 751 mmHg 94%
08:00 +26°C° 0 mm 1 mps 751 mmHg 90%
09:00 +27°C° 0 mm 1 mps 751 mmHg 86%
10:00 +28°C° 0 mm 1 mps 752 mmHg 83%
11:00 +30°C° 0 mm 1 mps 751 mmHg 77%
12:00 +31°C° 0 mm 1 mps 750 mmHg 71%
13:00 +31°C° 0 mm 0 mps 749 mmHg 65%
14:00 +33°C° 0 mm 1 mps 748 mmHg 65%
15:00 +33°C° 0 mm 1 mps 748 mmHg 64%
16:00 +33°C° 0 mm 1 mps 748 mmHg 64%
17:00 +31°C° 0.3 mm 1 mps 748 mmHg 68%
18:00 +30°C° 0.3 mm 1 mps 749 mmHg 72%
19:00 +29°C° 0.3 mm 1 mps 749 mmHg 76%
20:00 +28°C° 0.5 mm 2 mps 750 mmHg 80%
21:00 +27°C° 0.5 mm 3 mps 750 mmHg 85%
22:00 +27°C° 0.5 mm 4 mps 751 mmHg 89%
23:00 +26°C° 0 mm 3 mps 751 mmHg 90%

Tomorrow, 28 October, Wednesday

Time Temperature Precipitation Wind Pressure Humidity
00:00 +26°C° 0 mm 3 mps 751 mmHg 92%
01:00 +26°C° 0 mm 3 mps 751 mmHg 94%
02:00 +26°C° 0 mm 2 mps 750 mmHg 95%
03:00 +25°C° 0 mm 2 mps 750 mmHg 95%
04:00 +25°C° 0 mm 2 mps 750 mmHg 95%
05:00 +25°C° 0 mm 2 mps 750 mmHg 95%
06:00 +26°C° 0 mm 1 mps 751 mmHg 95%
07:00 +26°C° 0 mm 1 mps 751 mmHg 94%
08:00 +27°C° 0 mm 2 mps 751 mmHg 89%
09:00 +28°C° 0 mm 2 mps 752 mmHg 84%
10:00 +30°C° 0 mm 2 mps 752 mmHg 79%
11:00 +30°C° 0 mm 2 mps 751 mmHg 77%
12:00 +31°C° 0 mm 2 mps 751 mmHg 75%
13:00 +31°C° 0 mm 2 mps 750 mmHg 73%
14:00 +32°C° 0 mm 1 mps 749 mmHg 71%
15:00 +32°C° 0 mm 1 mps 749 mmHg 69%
16:00 +32°C° 0 mm 1 mps 748 mmHg 67%
17:00 +31°C° 0.1 mm 1 mps 749 mmHg 71%
18:00 +30°C° 0.1 mm 1 mps 749 mmHg 75%
19:00 +29°C° 0.1 mm 1 mps 750 mmHg 79%
20:00 +28°C° 1 mm 2 mps 751 mmHg 82%
21:00 +28°C° 1 mm 3 mps 751 mmHg 84%
22:00 +27°C° 1 mm 4 mps 752 mmHg 86%
23:00 +27°C° 0.1 mm 4 mps 752 mmHg 89%

Day after tomorrow, 29 October, Thursday

Time Temperature Precipitation Wind Pressure Humidity
00:00 +26°C° 0.1 mm 4 mps 752 mmHg 92%
01:00 +25°C° 0.1 mm 4 mps 752 mmHg 95%
02:00 +25°C° 0 mm 3 mps 751 mmHg 95%
03:00 +25°C° 0 mm 2 mps 751 mmHg 95%
04:00 +25°C° 0 mm 2 mps 751 mmHg 96%
05:00 +25°C° 0 mm 2 mps 751 mmHg 96%
06:00 +25°C° 0 mm 1 mps 752 mmHg 96%
07:00 +25°C° 0 mm 1 mps 752 mmHg 95%
08:00 +27°C° 0 mm 2 mps 752 mmHg 90%
09:00 +28°C° 0 mm 2 mps 753 mmHg 84%
10:00 +29°C° 0 mm 3 mps 753 mmHg 79%
11:00 +30°C° 0 mm 2 mps 752 mmHg 77%
12:00 +30°C° 0 mm 2 mps 751 mmHg 75%
13:00 +31°C° 0 mm 2 mps 751 mmHg 73%
14:00 +31°C° 0 mm 2 mps 750 mmHg 72%
15:00 +31°C° 0 mm 2 mps 750 mmHg 71%
16:00 +31°C° 0 mm 2 mps 750 mmHg 71%
17:00 +30°C° 0 mm 1 mps 750 mmHg 75%
18:00 +29°C° 0 mm 1 mps 751 mmHg 78%
19:00 +28°C° 0 mm 1 mps 751 mmHg 82%
20:00 +27°C° 1 mm 1 mps 752 mmHg 85%
21:00 +27°C° 1 mm 2 mps 752 mmHg 89%
22:00 +26°C° 1 mm 2 mps 752 mmHg 92%
23:00 +26°C° 0 mm 2 mps 752 mmHg 93%

30 October, Friday

Time Temperature Precipitation Wind Pressure Humidity
00:00 +26°C° 0 mm 2 mps 752 mmHg 94%
01:00 +25°C° 0 mm 3 mps 752 mmHg 95%
02:00 +25°C° 0 mm 2 mps 752 mmHg 95%
03:00 +25°C° 0 mm 2 mps 751 mmHg 96%
04:00 +25°C° 0 mm 1 mps 751 mmHg 97%
05:00 +25°C° 0 mm 1 mps 751 mmHg 97%
06:00 +25°C° 0 mm 1 mps 752 mmHg 96%
07:00 +25°C° 0 mm 1 mps 752 mmHg 96%
08:00 +27°C° 0 mm 1 mps 752 mmHg 91%
09:00 +28°C° 0 mm 1 mps 753 mmHg 86%
10:00 +29°C° 0 mm 2 mps 753 mmHg 81%
11:00 +30°C° 0 mm 2 mps 752 mmHg 77%
12:00 +30°C° 0 mm 1 mps 751 mmHg 73%
13:00 +31°C° 0 mm 1 mps 751 mmHg 69%
14:00 +32°C° 0 mm 1 mps 750 mmHg 69%
15:00 +32°C° 0 mm 1 mps 750 mmHg 68%
16:00 +32°C° 0 mm 1 mps 749 mmHg 68%
17:00 +31°C° 0 mm 1 mps 750 mmHg 72%
18:00 +29°C° 0 mm 1 mps 750 mmHg 77%
19:00 +28°C° 0 mm 1 mps 751 mmHg 81%
20:00 +28°C° 0.4 mm 1 mps 751 mmHg 84%
21:00 +27°C° 0.4 mm 2 mps 752 mmHg 86%
22:00 +27°C° 0.4 mm 2 mps 752 mmHg 89%
23:00 +26°C° 0.1 mm 3 mps 752 mmHg 90%

31 October, Saturday

Time Temperature Precipitation Wind Pressure Humidity
00:00 +26°C° 0.1 mm 3 mps 752 mmHg 92%
01:00 +26°C° 0.1 mm 3 mps 752 mmHg 93%
02:00 +26°C° 0 mm 3 mps 751 mmHg 94%
03:00 +25°C° 0 mm 2 mps 751 mmHg 96%
04:00 +25°C° 0 mm 2 mps 751 mmHg 97%
05:00 +25°C° 0 mm 1 mps 751 mmHg 96%
06:00 +25°C° 0 mm 1 mps 752 mmHg 96%
07:00 +25°C° 0 mm 1 mps 752 mmHg 95%
08:00 +27°C° 0 mm 2 mps 752 mmHg 89%
09:00 +28°C° 0 mm 2 mps 752 mmHg 83%
10:00 +30°C° 0 mm 2 mps 753 mmHg 77%
11:00 +30°C° 0 mm 2 mps 752 mmHg 74%
12:00 +31°C° 0 mm 2 mps 751 mmHg 71%
13:00 +32°C° 0 mm 2 mps 750 mmHg 68%
14:00 +32°C° 0 mm 2 mps 750 mmHg 68%
15:00 +32°C° 0 mm 1 mps 750 mmHg 68%
16:00 +32°C° 0 mm 1 mps 749 mmHg 69%
17:00 +31°C° 0.1 mm 1 mps 750 mmHg 73%
18:00 +30°C° 0.1 mm 1 mps 750 mmHg 77%
19:00 +28°C° 0.1 mm 1 mps 750 mmHg 80%
20:00 +28°C° 0.2 mm 1 mps 751 mmHg 83%
21:00 +27°C° 0.2 mm 2 mps 752 mmHg 86%
22:00 +27°C° 0.2 mm 3 mps 752 mmHg 89%
23:00 +26°C° 0.1 mm 3 mps 752 mmHg 91%

1 November, Sunday

Time Temperature Precipitation Wind Pressure Humidity
00:00 +26°C° 0.1 mm 2 mps 752 mmHg 92%
01:00 +26°C° 0.1 mm 2 mps 751 mmHg 93%
02:00 +26°C° 0 mm 2 mps 751 mmHg 94%
03:00 +26°C° 0 mm 2 mps 751 mmHg 95%
04:00 +25°C° 0 mm 1 mps 751 mmHg 96%
05:00 +26°C° 0 mm 1 mps 751 mmHg 95%
06:00 +26°C° 0 mm 2 mps 751 mmHg 95%
07:00 +26°C° 0 mm 2 mps 752 mmHg 94%
08:00 +27°C° 0 mm 2 mps 752 mmHg 87%
09:00 +28°C° 0 mm 2 mps 752 mmHg 81%
10:00 +30°C° 0 mm 2 mps 752 mmHg 74%
11:00 +31°C° 0 mm 2 mps 752 mmHg 70%
12:00 +32°C° 0 mm 1 mps 751 mmHg 66%
13:00 +33°C° 0 mm 1 mps 750 mmHg 62%
14:00 +33°C° 0 mm 1 mps 749 mmHg 61%
15:00 +33°C° 0 mm 1 mps 749 mmHg 60%
16:00 +33°C° 0 mm 1 mps 748 mmHg 58%
17:00 +32°C° 0 mm 1 mps 749 mmHg 64%
18:00 +31°C° 0 mm 1 mps 749 mmHg 70%
19:00 +29°C° 0 mm 1 mps 749 mmHg 75%
20:00 +29°C° 0.4 mm 2 mps 750 mmHg 79%
21:00 +28°C° 0.4 mm 2 mps 751 mmHg 84%
22:00 +27°C° 0.4 mm 3 mps 751 mmHg 88%
23:00 +27°C° 0.8 mm 3 mps 751 mmHg 90%
Show more